Tracking 19905 objects as of 17-Oct-2019
HD Live streaming from Space Station
objects crossing your sky now

DELTA 1 DEB

Track DELTA 1 DEB now!
10-day predictions


NORAD ID: 12266
Int'l Code: 1978-026DK
Perigee: 820.4 km
Apogee: 1,048.0 km
Inclination: 98.8 °
Period: 103.6 minutes
Semi major axis: 7305 km
RCS: 0.0032 m2 (small)
Launch date: March 5, 1978
Source: United States (US)
Launch site: AIR FORCE WESTERN TEST RANGE (AFWTR)

Note: This is SATELLITE DEBRIS
aabbcc
Your satellite tracking list
Your tracking list is empty




NASA's NSSDC Master Catalog

Two Line Element Set (TLE):
1 12266U 78026DK  19289.25042860  .00000314  00000-0  25987-3 0  9998
2 12266  98.8006 175.6034 0155768 273.6878  84.6482 13.90453979945032
Source of the keplerian elements: AFSPC